Waterville, ME

2:11 PM EDT on May 28, 2017 (GMT -0400)
Waterville Lafleur

Weather History for KWVL - June, 2013

Change the Weather History Date:

Wednesday, June 12, 2013

  Actual Average Record
Temperature  
Mean Temperature 56 °F -  
Max Temperature 57 °F 77 °F 90 °F (1973)
Min Temperature 55 °F 48 °F 38 °F (1980)
Degree Days  
Heating Degree Days 9    
Growing Degree Days 6 (Base 50)    
Moisture  
Dew Point 54 °F    
Average Humidity 92    
Maximum Humidity 94    
Minimum Humidity 82    
Precipitation  
Precipitation 0.19 in - - ()
Sea Level Pressure  
Sea Level Pressure 29.59 in    
Wind  
Wind Speed 11 mph (North)    
Max Wind Speed 18 mph    
Max Gust Speed 26 mph    
Visibility 6 miles    
Events      
Averages and records for this station are not official NWS values.
T = Trace of Precipitation, MM = Missing Value Source: NWS Daily Summary

Daily Weather History Graph

Daily Weather History Graph

Search for Another Location

Airport or City:

Trip Planner

Search our weather history database for the weather conditions in past years. The results will help you decide how hot, cold, wet, or windy it might be!

Date:

Astronomy

Jun. 12, 2013 Rise Set
Actual Time 4:53 AM EDT 8:24 PM EDT
Civil Twilight 4:16 AM EDT 9:00 PM EDT
Nautical Twilight 3:28 AM EDT 9:49 PM EDT
Astronomical Twilight 2:25 AM EDT 10:52 PM EDT
Moon 8:36 AM EDT (6/12) 10:49 PM EDT (6/12)
Length of Visible Light 16h 44m
Length of Day
15h 30m
Waxing Crescent, 14% of the Moon is Illuminated
Jun 12
Waxing Crescent
Jun 16
First Quarter
Jun 23
Full
Jun 30
Last Quarter
Jul 8
New

Hourly Weather History & Observations

Time (EDT) Temp. Dew Point Humidity Pressure Visibility Wind Dir Wind Speed Gust Speed Precip Events Conditions
12:15 AM - - N/A% 29.52 in 5.0 mi North 11.5 mph - N/A   Overcast
12:35 AM - - N/A% 29.52 in 8.0 mi North 10.4 mph - N/A   Overcast
12:55 AM - - N/A% 29.51 in 9.0 mi North 8.1 mph - N/A   Overcast
1:15 AM - - N/A% 29.51 in 4.0 mi North 10.4 mph - N/A   Overcast
1:35 AM - - N/A% 29.51 in 7.0 mi North 9.2 mph - N/A   Overcast
1:55 AM - - N/A% 29.51 in 3.0 mi North 9.2 mph - N/A   Overcast
2:15 AM - - N/A% 29.50 in 4.0 mi North 8.1 mph - N/A   Overcast
2:35 AM - - N/A% 29.50 in 5.0 mi North 8.1 mph - N/A   Overcast
2:55 AM - - N/A% 29.50 in 5.0 mi North 6.9 mph - N/A   Overcast
3:15 AM - - N/A% 29.50 in 3.0 mi North 9.2 mph - 0.01 in   Overcast
3:35 AM - - N/A% 29.49 in 2.5 mi North 8.1 mph - 0.01 in   Overcast
3:55 AM - - N/A% 29.48 in 5.0 mi North 8.1 mph - 0.01 in   Overcast
4:15 AM - - N/A% 29.48 in 4.0 mi North 6.9 mph - 0.01 in   Overcast
4:35 AM - - N/A% 29.48 in 3.0 mi North 8.1 mph - 0.02 in   Overcast
4:55 AM - - N/A% 29.49 in 3.0 mi North 8.1 mph - 0.03 in   Overcast
5:15 AM - - N/A% 29.49 in 4.0 mi North 10.4 mph - 0.01 in   Overcast
5:35 AM - - N/A% 29.49 in 2.0 mi NNE 5.8 mph - 0.03 in   Overcast
5:55 AM - - N/A% 29.49 in 2.5 mi North 6.9 mph - 0.04 in   Overcast
6:15 AM - - N/A% 29.50 in 1.8 mi NNE 8.1 mph - 0.01 in   Overcast
6:35 AM - - N/A% 29.50 in 2.0 mi North 8.1 mph - 0.02 in   Overcast
6:55 AM - - N/A% 29.51 in 2.0 mi North 8.1 mph - 0.02 in   Overcast
7:15 AM 55.4 °F 53.6 °F 94% 29.52 in 2.5 mi North 9.2 mph - 0.01 in   Overcast
7:35 AM - - N/A% 29.51 in 2.0 mi North 12.7 mph 18.4 mph 0.01 in   Overcast
7:55 AM - - N/A% 29.51 in 2.0 mi North 12.7 mph 16.1 mph 0.02 in   Overcast
8:15 AM 55.4 °F 53.6 °F 94% 29.52 in 2.5 mi North 10.4 mph - N/A   Overcast
8:35 AM 55.4 °F 53.6 °F 94% 29.53 in 5.0 mi North 11.5 mph 18.4 mph 0.01 in   Overcast
8:55 AM 55.4 °F 53.6 °F 94% 29.53 in 2.5 mi North 12.7 mph - 0.02 in   Overcast
9:15 AM 55.4 °F 53.6 °F 94% 29.53 in 3.0 mi North 13.8 mph 20.7 mph 0.01 in   Overcast
9:35 AM - - N/A% 29.53 in 2.5 mi North 15.0 mph 19.6 mph 0.02 in   Mostly Cloudy
9:55 AM - - N/A% 29.53 in 3.0 mi North 12.7 mph - 0.02 in   Overcast
10:15 AM 57.2 °F 53.6 °F 88% 29.54 in 9.0 mi North 13.8 mph 20.7 mph N/A   Overcast
10:35 AM 57.2 °F 53.6 °F 88% 29.55 in 10.0 mi North 15.0 mph 19.6 mph N/A   Overcast
11:15 AM - - N/A% 29.55 in 6.0 mi North 15.0 mph 21.9 mph N/A   Overcast
11:35 AM - - N/A% 29.56 in 8.0 mi North 16.1 mph 25.3 mph N/A   Overcast
11:55 AM - - N/A% 29.56 in 6.0 mi North 16.1 mph 23.0 mph N/A   Overcast
12:15 PM - - N/A% 29.57 in 7.0 mi North 13.8 mph 24.2 mph N/A   Overcast
12:35 PM - - N/A% 29.58 in 7.0 mi North 13.8 mph 21.9 mph N/A   Overcast
12:55 PM - - N/A% 29.58 in 9.0 mi North 16.1 mph 23.0 mph 0.01 in   Overcast
1:15 PM 57.2 °F 55.4 °F 94% 29.60 in 7.0 mi North 15.0 mph 20.7 mph N/A   Overcast
1:35 PM 57.2 °F 55.4 °F 94% 29.60 in 4.0 mi North 18.4 mph 24.2 mph N/A   Overcast
1:55 PM 57.2 °F 55.4 °F 94% 29.60 in 3.0 mi North 12.7 mph 23.0 mph N/A   Overcast
2:15 PM - - N/A% 29.61 in 3.0 mi North 16.1 mph 23.0 mph N/A   Overcast
2:35 PM - - N/A% 29.61 in 3.0 mi North 16.1 mph 21.9 mph N/A   Overcast
2:55 PM - - N/A% 29.62 in 5.0 mi North 12.7 mph 24.2 mph N/A   Overcast
3:15 PM - - N/A% 29.62 in 10.0 mi North 11.5 mph 20.7 mph N/A   Overcast
3:35 PM - - N/A% 29.62 in 10.0 mi NNW 12.7 mph 19.6 mph N/A   Overcast
3:55 PM - - N/A% 29.63 in 10.0 mi North 13.8 mph 21.9 mph N/A   Mostly Cloudy
4:15 PM - - N/A% 29.63 in 10.0 mi NNW 13.8 mph 21.9 mph N/A   Overcast
4:35 PM - - N/A% 29.63 in 10.0 mi North 13.8 mph - N/A   Mostly Cloudy
4:55 PM - - N/A% 29.64 in 6.0 mi North 11.5 mph 19.6 mph 0.01 in   Overcast
5:15 PM - - N/A% 29.65 in 8.0 mi North 17.3 mph 26.5 mph N/A   Overcast
5:35 PM - - N/A% 29.66 in 10.0 mi North 12.7 mph - N/A   Overcast
5:55 PM - - N/A% 29.66 in 10.0 mi North 10.4 mph - N/A   Overcast
6:15 PM - - N/A% 29.67 in 10.0 mi North 12.7 mph 18.4 mph N/A   Overcast
6:35 PM - - N/A% 29.67 in 10.0 mi North 12.7 mph 21.9 mph N/A   Overcast
6:55 PM - - N/A% 29.68 in 10.0 mi North 10.4 mph - N/A   Overcast
7:15 PM - - N/A% 29.68 in 10.0 mi NNW 8.1 mph - N/A   Overcast
7:35 PM 57.2 °F 51.8 °F 82% 29.69 in 10.0 mi NNW 9.2 mph - N/A   Overcast
7:55 PM 57.2 °F 53.6 °F 88% 29.69 in 10.0 mi NNW 8.1 mph - N/A   Overcast
8:15 PM - - N/A% 29.69 in 10.0 mi North 8.1 mph - N/A   Overcast
8:35 PM - - N/A% 29.71 in 10.0 mi North 8.1 mph - N/A   Overcast
8:55 PM - - N/A% 29.71 in 10.0 mi NNW 9.2 mph - N/A   Overcast
9:15 PM - - N/A% 29.71 in 10.0 mi NNW 11.5 mph - N/A   Overcast
9:35 PM - - N/A% 29.72 in 10.0 mi NNW 9.2 mph - N/A   Overcast
9:55 PM - - N/A% 29.73 in 10.0 mi NE 3.5 mph - N/A   Overcast
10:15 PM - - N/A% 29.73 in 10.0 mi NNW 5.8 mph - N/A   Mostly Cloudy
10:35 PM - - N/A% 29.73 in 10.0 mi NNW 6.9 mph - N/A   Mostly Cloudy
10:55 PM - - N/A% 29.73 in 10.0 mi NNW 6.9 mph - N/A   Mostly Cloudy
11:15 PM - - N/A% 29.73 in 10.0 mi North 9.2 mph - 0.01 in   Partly Cloudy
11:35 PM - - N/A% 29.73 in 10.0 mi North 9.2 mph - 0.01 in   Clear
11:55 PM - - N/A% 29.73 in 10.0 mi NNW 8.1 mph - 0.01 in   Partly Cloudy